OBJECT CL, 62691

Orbit data source: Space-Track

You're viewing an Uncataloged Satellite

Recently launched and/or uncataloged satellites may have evolving metadata. Metadata may include but not limited to: Owner, Maufacturer, Bus, Motor, and Mission.

OBJECT CL, 62691 is a satellite in SSO that was launched on Tue, 14 Jan 2025 UTC via an FALCON 9 launch vehicle from the Air Force Western Test Range (AFWTR). Unknown objects in Earth's orbit typically refer to objects detected orbiting the Earth but have not yet been identified or cataloged. These objects could be anything from previously untracked satellites, spent rocket stages, debris from satellite collisions, or even natural meteoroids temporarily captured by Earth's gravity.

Loading next visibility...
Identifier
62691, 2025-009CL
Orbit
SSO
Country
Flag of TBDTBD
Related business
None
Manufacturer
Unknown
Mission
Operational Amateur Technology
Bus & Motor
Unknown
Mass
Unknown
Launch date (UTC)
2025-01-14 (2 years ago)
Launch vehicle
FALCON 9
Launch site
Air Force Western Test Range (AFWTR)
Object type
Unknown
Shape & HBR
Box, 0.1 m
Radar Cross Section
0.004 m², Medium (>0.1 m² and < 1m²)

Expand to show TLE details & history
Last TLE update: 20 hours ago

TLE from 20 hours ago
0 OBJECT CL
1 62691U 25009CL  26208.20246969  .00046887  00000-0  86288-3 0  9994
2 62691  97.3759 294.1496 0003044 107.3316 252.8268 15.49044751 85380
Epoch: 2026-07-27T04:51Z
TLE epoch observation values (Epoch: 2026-07-27T04:51:33.381Z)
Latitude
-0.00001°
Longitude
-83.62891°
Altitude
423.261 km
Speed
7.657 km/s
True Right ascension
19h 36m 35s
True Declination
0° 00' 00"
Sunlit
Object was in full shadow at epoch
Visualization orbit readout
Latitude
Unknown
Longitude
Unknown
Altitude
Unknown
Speed
Unknown
Apparent Right ascension
Unknown
Apparent Declination
Unknown
Sunlit
N/A
Visualization observer readout
Local Sidereal Time
14:14:37
Azimuth
Unknown
Elevation
Unknown
Doppler factor
Unknown
Orbital elements
Apogee altitude
418.513 km
Perigee altitude
414.377 km
Semi-major axis
6,794.582 km
Eccentricity
0.0003
Inclination
97.3759°
RAAN
294.1496°
Arg. of periapsis
107.3316°
True anomaly
252.79348°
Mean anomaly
252.8268°
Eccentric anomaly
252.81014°
Mean motion
3.87524 °/min
Orbital period
92.9 mins
BSTAR
0.00086288
Loading maneuver chart data...
Computing Atmospheric mass density...
Loading historical data...
Loading historical data...
Loading historical data...
Loading historical data...
Loading historical data...
Loading historical data...
Loading historical data...

Documentation

Showing up to 5 results
|